Total_Precipitation_Accumulation
0.03 0.06 0.14 0.16 0.16 0.17 0.16 0.15 0.15 0.16 0.16 0.14 0.12 0.12 0.12 0.11 0.16 0.21 0.21 0.15 0.11 0.11 0.11 0.19 0.24 0.18 0.20 0.26 0.30 0.34 0.40 0.42 0.33 0.26 0.26 0.27 0.25 0.26 0.34 0.42 0.48 0.52 0.36
0.01 0.04 0.13 0.18 0.18 0.17 0.16 0.14 0.15 0.16 0.13 0.12 0.11 0.11 0.10 0.12 0.17 0.18 0.14 0.10 0.07 0.07 0.10 0.19 0.26 0.22 0.23 0.30 0.41 0.49 0.54 0.47 0.38 0.28 0.32 0.35 0.31 0.31 0.36 0.39 0.53 0.53 0.34
0.01 0.02 0.08 0.16 0.18 0.16 0.15 0.13 0.20 0.20 0.13 0.12 0.14 0.12 0.09 0.09 0.09 0.10 0.10 0.07 0.05 0.05 0.07 0.16 0.24 0.24 0.25 0.35 0.46 0.49 0.51 0.49 0.40 0.33 0.58 1.00 0.71 0.43 0.39 0.46 0.48 0.36 0.32
0.02 0.02 0.06 0.16 0.22 0.21 0.18 0.19 0.32 0.29 0.20 0.15 0.14 0.13 0.08 0.07 0.11 0.17 0.17 0.07 0.05 0.05 0.06 0.13 0.21 0.21 0.25 0.35 0.40 0.38 0.39 0.39 0.42 0.52 0.95 1.24 1.05 0.63 0.60 0.60 0.51 0.39 0.34
0.04 0.08 0.21 0.30 0.27 0.25 0.26 0.34 0.47 0.40 0.33 0.23 0.14 0.10 0.08 0.07 0.10 0.16 0.12 0.07 0.04 0.05 0.07 0.13 0.19 0.19 0.21 0.25 0.29 0.30 0.36 0.49 0.61 0.71 0.96 1.02 1.00 0.75 0.69 0.64 0.58 0.44 0.40
0.09 0.14 0.25 0.36 0.32 0.31 0.37 0.46 0.48 0.48 0.51 0.34 0.18 0.11 0.12 0.11 0.11 0.14 0.13 0.07 0.05 0.05 0.06 0.09 0.14 0.19 0.20 0.23 0.24 0.30 0.42 0.60 0.69 0.78 0.91 0.91 0.85 0.66 0.61 0.60 0.59 0.55 0.50
0.16 0.19 0.24 0.40 0.40 0.41 0.47 0.53 0.48 0.51 0.54 0.39 0.19 0.17 0.17 0.11 0.10 0.13 0.15 0.07 0.04 0.03 0.03 0.06 0.10 0.14 0.18 0.22 0.23 0.29 0.39 0.42 0.52 0.68 0.90 0.93 0.67 0.48 0.51 0.56 0.57 0.57 0.56
0.37 0.31 0.31 0.42 0.44 0.46 0.54 0.62 0.54 0.52 0.52 0.38 0.25 0.22 0.17 0.14 0.13 0.14 0.11 0.07 0.03 0.03 0.02 0.04 0.09 0.13 0.15 0.18 0.23 0.30 0.34 0.32 0.39 0.44 0.50 0.73 0.68 0.52 0.44 0.52 0.58 0.53 0.50
0.79 0.66 0.50 0.43 0.41 0.45 0.55 0.66 0.68 0.64 0.58 0.42 0.33 0.24 0.21 0.19 0.15 0.12 0.08 0.06 0.05 0.04 0.03 0.03 0.06 0.08 0.10 0.13 0.18 0.25 0.30 0.28 0.39 0.39 0.34 0.51 0.55 0.46 0.39 0.43 0.52 0.59 0.55
0.88 0.84 0.73 0.65 0.62 0.62 0.57 0.69 0.84 0.87 0.78 0.60 0.47 0.39 0.31 0.23 0.16 0.13 0.07 0.05 0.05 0.04 0.04 0.04 0.03 0.04 0.07 0.08 0.14 0.21 0.26 0.28 0.36 0.32 0.30 0.38 0.49 0.45 0.41 0.34 0.35 0.37 0.37
0.74 0.76 0.78 0.81 0.84 0.89 0.89 0.86 1.05 1.09 0.98 0.74 0.58 0.53 0.48 0.34 0.31 0.27 0.13 0.11 0.08 0.06 0.05 0.05 0.04 0.03 0.03 0.05 0.12 0.21 0.18 0.27 0.38 0.31 0.27 0.30 0.37 0.36 0.34 0.28 0.21 0.21 0.20
0.60 0.62 0.63 0.68 0.76 0.87 0.94 1.26 1.46 1.24 1.10 0.82 0.78 0.64 0.61 0.60 0.59 0.40 0.25 0.24 0.18 0.13 0.10 0.09 0.09 0.06 0.03 0.01 0.05 0.10 0.13 0.22 0.32 0.24 0.20 0.26 0.32 0.30 0.23 0.18 0.14 0.13 0.12
0.48 0.47 0.47 0.46 0.48 0.57 0.77 1.11 1.39 1.49 1.44 1.33 1.07 0.82 0.79 0.62 0.46 0.36 0.27 0.26 0.25 0.20 0.17 0.16 0.14 0.09 0.06 0.04 0.04 0.06 0.10 0.15 0.28 0.27 0.17 0.23 0.29 0.29 0.22 0.15 0.10 0.10 0.08
0.47 0.47 0.44 0.44 0.41 0.43 0.51 0.68 0.88 1.02 1.10 1.11 0.93 0.80 0.85 0.71 0.55 0.49 0.41 0.36 0.30 0.24 0.21 0.19 0.16 0.11 0.07 0.04 0.05 0.07 0.09 0.12 0.27 0.34 0.26 0.21 0.28 0.30 0.26 0.17 0.11 0.09 0.10
0.52 0.59 0.56 0.47 0.44 0.43 0.47 0.54 0.62 0.77 0.85 0.87 0.89 0.83 0.83 0.79 0.73 0.63 0.50 0.43 0.35 0.31 0.28 0.24 0.17 0.13 0.09 0.06 0.06 0.09 0.10 0.15 0.25 0.28 0.30 0.31 0.35 0.41 0.39 0.31 0.21 0.13 0.12
0.53 0.60 0.65 0.57 0.52 0.48 0.46 0.49 0.53 0.64 0.72 0.76 0.74 0.73 0.82 0.87 0.82 0.74 0.64 0.57 0.47 0.43 0.46 0.38 0.26 0.19 0.14 0.08 0.05 0.07 0.08 0.12 0.18 0.19 0.23 0.32 0.41 0.40 0.45 0.46 0.39 0.26 0.20
0.53 0.56 0.59 0.60 0.60 0.59 0.57 0.56 0.55 0.63 0.73 0.74 0.71 0.66 0.67 0.73 0.76 0.74 0.70 0.64 0.59 0.59 0.59 0.53 0.38 0.26 0.17 0.10 0.05 0.04 0.05 0.07 0.06 0.07 0.08 0.12 0.23 0.37 0.46 0.49 0.43 0.36 0.30
0.46 0.47 0.52 0.54 0.59 0.65 0.67 0.69 0.71 0.71 0.77 0.74 0.73 0.67 0.62 0.66 0.71 0.81 0.77 0.69 0.66 0.69 0.69 0.66 0.50 0.36 0.22 0.14 0.10 0.07 0.06 0.06 0.05 0.05 0.05 0.05 0.10 0.18 0.33 0.35 0.34 0.36 0.33
0.41 0.41 0.44 0.48 0.51 0.62 0.70 0.73 0.81 0.84 0.85 0.82 0.81 0.71 0.69 0.75 0.80 0.93 0.98 0.94 0.88 0.83 0.76 0.67 0.60 0.50 0.35 0.26 0.20 0.14 0.09 0.07 0.08 0.07 0.05 0.04 0.03 0.08 0.15 0.13 0.13 0.15 0.20
0.32 0.34 0.38 0.43 0.45 0.53 0.68 0.80 0.95 1.06 1.03 1.04 0.98 0.86 0.88 1.02 1.14 1.26 1.23 1.25 1.24 1.05 0.94 0.83 0.73 0.63 0.47 0.37 0.31 0.22 0.14 0.11 0.10 0.11 0.08 0.06 0.04 0.03 0.04 0.05 0.09 0.07 0.07
0.22 0.25 0.31 0.34 0.42 0.50 0.58 0.72 0.94 1.21 1.31 1.40 1.35 1.17 1.12 1.24 1.48 1.66 1.59 1.59 1.54 1.35 1.25 1.26 1.34 1.20 0.87 0.54 0.46 0.35 0.22 0.13 0.11 0.12 0.10 0.08 0.06 0.07 0.06 0.03 0.06 0.07 0.05
0.15 0.17 0.22 0.30 0.39 0.48 0.57 0.75 0.91 1.05 1.05 1.22 1.36 1.33 1.23 1.22 1.37 1.51 1.73 1.76 1.63 1.58 1.66 1.65 1.84 1.87 1.39 0.90 0.79 0.78 0.56 0.38 0.19 0.12 0.12 0.10 0.08 0.10 0.07 0.04 0.04 0.04 0.04
0.10 0.12 0.15 0.22 0.32 0.45 0.61 0.85 1.06 1.25 1.33 1.38 1.30 1.37 1.37 1.28 1.31 1.39 1.55 1.69 1.66 1.67 1.71 1.78 2.03 2.33 2.01 1.46 1.13 1.16 0.92 0.77 0.55 0.24 0.13 0.13 0.12 0.11 0.11 0.10 0.08 0.08 0.07
0.08 0.09 0.12 0.20 0.35 0.56 0.77 1.03 1.29 1.49 1.53 1.42 1.45 1.48 1.35 1.26 1.22 1.28 1.41 1.54 1.63 1.62 1.70 1.75 1.80 2.17 2.36 2.03 1.67 1.29 0.97 0.81 0.78 0.59 0.32 0.21 0.21 0.16 0.15 0.13 0.10 0.10 0.10
0.14 0.16 0.23 0.43 0.68 0.93 1.14 1.40 1.70 1.70 1.58 1.49 1.48 1.45 1.39 1.37 1.35 1.33 1.46 1.51 1.51 1.55 1.63 1.88 2.06 2.26 2.35 2.24 2.07 1.85 1.59 1.24 0.82 0.78 0.76 0.51 0.35 0.25 0.19 0.17 0.15 0.14 0.14
0.44 0.58 0.79 1.05 1.24 1.33 1.45 1.60 1.73 1.70 1.72 1.66 1.47 1.38 1.36 1.39 1.43 1.49 1.55 1.52 1.47 1.49 1.57 1.75 1.96 2.15 2.36 2.44 2.24 1.98 1.83 1.63 1.34 1.13 0.89 0.79 0.67 0.46 0.37 0.33 0.26 0.23 0.24